Location: Dziadowski
(50.3833°N, 20.0333°E)
Time: 21:30:02
(UTC+00:00)

Lacrosse 4 Rocket - Pass Details

Date: 18 January 2026
Orbit: 512 x 564 km, 68.0° (Epoch: 18 February)

Event Time Altitude Azimuth Distance (km) Brightness Sun altitude
Rises 04:58:24 0° 218° (SW) 2,649 4.6 -14.4°
Reaches altitude 10° 05:00:35 10° 220° (SW) 1,757 3.6 -14.1°
Maximum altitude 05:04:30 74° 306° (NW) 543 1.1 -13.5°
Drops below altitude 10° 05:08:24 10° 32° (NNE) 1,750 4.1 -12.9°
Sets 05:10:34 0° 34° (NE) 2,638 5.0 -12.5°
